Location: Avenches
(46.8809°N, 7.0410°E)
Time: 23:44:07
(UTC+00:00)

STARLINK-1143 - Pass Details

Date: 30 March 2020
Orbit: 549 x 550 km, 53.0° (Epoch: 29 May)

Event Time Altitude Azimuth Distance (km) Brightness Sun altitude
Rises 19:18:46 0° 248° (WSW) 2,714 7.9 -14.0°
Reaches altitude 10° 19:21:01 10° 251° (WSW) 1,822 7.0 -14.4°
Maximum altitude 19:25:08 68° 334° (NNW) 596 3.9 -15.0°
Enters shadow 19:28:52 13° 58° (ENE) 1,669 5.8 -15.6°
